Overview Statistics Trail Chart Weather Telemetry Raw packets
 

This is the latest recevied weather packets stored in our database for station/object G4WLC-1. If no packets are shown the sender has not sent any weather packets the latest 10 day(s).

<< 89 90 91 92 93 94 95 >>
Time Temp. Humidity Pressure Rain* Wind** Luminosity Snow
1788003438 16.67° C 95% 1000.9 hPa 0.25 mm - - -
1788003138 16.67° C 95% 1001 hPa 0 mm - - -
1788002838 16.67° C 95% 1001.1 hPa 0 mm - - -
1788002538 16.11° C 95% 1001.3 hPa 0 mm - - -
1788002238 16.11° C 95% 1001.2 hPa 0 mm - - -
1788001938 16.67° C 95% 1001.3 hPa 0 mm - - -
1788001638 16.11° C 95% 1001.4 hPa 0 mm - - -
1788001338 16.11° C 95% 1001.3 hPa 0 mm - - -
1788001038 16.11° C 95% 1001.3 hPa 0 mm - - -
1788000738 16.11° C 95% 1001.4 hPa 0 mm - - -
1788000438 16.11° C 95% 1001.4 hPa 0 mm - - -
1788000138 16.11° C 95% 1001.4 hPa 0 mm - - -
1787999838 16.11° C 95% 1001.4 hPa 0 mm - - -
1787999538 16.11° C 95% 1001.6 hPa 0 mm - - -
1787999238 16.11° C 95% 1001.6 hPa 0 mm - - -
1787998938 16.11° C 95% 1001.7 hPa 0 mm - - -
1787998638 15.56° C 95% 1001.7 hPa 0 mm - - -
1787998338 15.56° C 95% 1001.8 hPa 0 mm - - -
1787998038 15.56° C 95% 1001.8 hPa 0 mm - - -
1787997738 15.56° C 95% 1001.9 hPa 0.25 mm - - -
1787997438 15.56° C 95% 1001.9 hPa 1.02 mm - - -
1787997138 15.56° C 95% 1002.1 hPa 2.03 mm - - -
1787996838 15.56° C 95% 1002.2 hPa 2.54 mm - - -
1787996542 15.56° C 95% 1002.2 hPa 3.3 mm - - -
1787996239 15.56° C 95% 1002.2 hPa 4.57 mm - - -

* Rain latest hour (hover to see other rain measurements)
** Current wind speed in m/s (hover to see current wind gust speed)